MDT,Max TemperatureF,Mean TemperatureF,Min TemperatureF,Max Dew PointF,MeanDew PointF,Min DewpointF,Max Humidity, Mean Humidity, Min Humidity, Max Sea Level PressureIn, Mean Sea Level PressureIn, Min Sea Level PressureIn, Max VisibilityMiles, Mean VisibilityMiles, Min VisibilityMiles, Max Wind SpeedMPH, Mean Wind SpeedMPH, Max Gust SpeedMPH,PrecipitationIn, CloudCover, Events, WindDirDegrees
2013-4-1,69,55,41,43,29,15,67,43,18,30.02,29.82,29.68,10,10,6,24,10,31,0.08,4,Rain-Thunderstorm,93
2013-4-2,59,47,35,36,33,31,82,59,36,29.98,29.89,29.79,10,10,10,28,7,36,T,4,Rain,306
2013-4-3,66,51,36,35,29,19,79,50,21,30.12,30.04,29.97,10,10,10,15,4,20,0.00,2,,311
2013-4-4,71,55,39,25,23,19,50,33,15,30.14,30.02,29.90,10,10,10,16,6,21,0.00,1,,95
2013-4-5,70,59,47,43,28,21,59,38,17,29.90,29.80,29.66,10,10,10,24,10,29,T,4,Rain-Thunderstorm,181
2013-4-6,66,52,38,36,28,18,70,43,16,29.94,29.86,29.76,10,10,10,31,5,45,T,2,Rain,196
2013-4-7,70,55,39,35,26,14,70,43,15,29.85,29.71,29.53,10,10,10,29,9,38,0.00,3,,188
2013-4-8,65,53,41,42,27,17,77,50,22,29.50,29.34,29.21,10,10,4,33,16,41,0.03,4,Rain,140
2013-4-9,45,33,21,33,21,12,82,63,43,30.11,29.71,29.36,10,10,10,25,10,30,0.00,7,,39
2013-4-10,48,34,20,22,11,6,68,45,21,30.23,30.11,29.99,10,10,10,16,7,22,0.00,4,,91
2013-4-11,55,44,33,32,27,22,64,51,38,30.02,29.91,29.80,10,10,10,16,7,20,T,4,,88
2013-4-12,65,52,38,33,25,16,76,46,16,29.90,29.83,29.77,10,10,10,14,6,20,0.00,2,,54
2013-4-13,70,54,37,46,26,18,100,58,16,29.81,29.57,29.31,10,10,5,39,13,54,0.15,4,Rain,181
2013-4-14,57,45,33,46,21,7,100,57,14,29.76,29.62,29.49,10,10,6,29,9,32,0.05,2,Rain,295
2013-4-15,48,43,37,39,34,22,92,66,39,29.71,29.61,29.43,10,9,4,21,7,24,0.43,8,Rain,118
2013-4-16,52,41,30,40,34,28,92,77,61,29.87,29.68,29.53,10,7,2,30,12,33,0.08,8,Rain-Snow,24
2013-4-17,37,32,26,30,26,16,100,74,47,30.19,29.89,29.78,10,4,0,23,7,28,0.33,7,Fog-Snow,304
2013-4-18,42,33,24,22,18,15,81,58,34,30.34,30.27,30.18,10,10,10,15,5,20,0.00,4,,49
2013-4-19,52,39,25,32,20,15,81,54,26,30.34,30.19,30.00,10,10,10,14,6,20,0.00,2,,103
2013-4-20,57,49,41,39,34,33,76,58,40,30.04,29.96,29.91,10,10,10,28,9,32,T,7,Rain,84
2013-4-21,64,48,32,37,28,11,100,56,12,30.15,30.01,29.86,10,10,10,21,5,28,0.00,2,,79
2013-4-22,68,55,41,33,26,19,62,39,16,29.92,29.81,29.68,10,10,10,29,10,39,0.00,5,,340
2013-4-23,52,44,36,26,13,0,59,36,13,30.09,30.01,29.85,10,10,10,21,9,33,0.00,2,,331
2013-4-24,60,47,33,17,12,7,51,33,14,30.16,30.09,30.04,10,10,10,13,5,16,0.00,0,,129
2013-4-25,69,53,36,19,15,10,48,29,10,30.05,29.93,29.79,10,10,10,18,8,25,0.00,0,,107
2013-4-26,72,56,40,21,15,8,41,25,9,30.10,30.03,29.91,10,10,10,17,5,22,0.00,0,,281
2013-4-27,74,56,37,22,17,12,52,31,10,30.18,30.08,29.96,10,10,10,15,6,20,0.00,0,,177
2013-4-28,78,59,39,24,21,17,48,30,11,30.11,29.89,29.75,10,10,10,16,5,22,0.00,0,,152
2013-4-29,81,64,46,28,24,18,46,28,10,29.79,29.68,29.53,10,10,10,24,8,29,0.00,0,,116
2013-4-30,81,63,44,41,28,22,51,32,12,29.78,29.54,29.43,10,10,9,31,12,37,0.04,2,Rain,313